FW8424 Weather Reports


time (UTC)temp
C
wind
direction
speed
KPH
gust
KPH
rain 1hr
cm
rain 24hr
cm
rain mn
cm
humidity
%
barometer
mb
20260510095053 5 333 4.8 17.7 0.00 0.03 0.00 70 1010.2
20260510094555 5 320 4.8 17.7 0.00 0.03 0.00 70 1010.2
20260510094056 5 319 8.0 17.7 0.00 0.03 0.00 70 1010.2
20260510093555 5 282 4.8 16.1 0.00 0.03 0.00 70 1010.1
20260510093057 5 343 6.4 16.1 0.00 0.03 0.00 70 1010.0
20260510092558 5 344 4.8 12.9 0.00 0.03 0.00 70 1009.8
20260510092054 5 333 4.8 12.9 0.00 0.03 0.00 70 1009.8
20260510091554 5 328 3.2 16.1 0.00 0.03 0.00 70 1009.7
20260510091056 5 320 4.8 16.1 0.00 0.03 0.00 69 1009.6
20260510090557 5 293 6.4 14.5 0.00 0.03 0.00 69 1009.5
20260510090114 5 299 4.8 12.9 0.00 0.03 0.00 69 1009.4
20260510085556 5 298 4.8 16.1 0.00 0.03 0.00 69 1009.4
20260510085054 5 323 6.4 17.7 0.00 0.03 0.00 68 1009.2
20260510084556 5 352 6.4 17.7 0.00 0.03 0.00 68 1009.1
20260510084054 5 313 8.0 17.7 0.00 0.03 0.00 68 1009.1
20260510083556 5 313 8.0 17.7 0.00 0.03 0.00 68 1009.1
20260510083056 5 323 4.8 16.1 0.00 0.03 0.00 68 1009.2
20260510082557 5 324 6.4 16.1 0.00 0.03 0.00 67 1009.0
20260510082054 6 342 6.4 17.7 0.00 0.03 0.00 67 1009.0
20260510081618 6 298 8.0 17.7 0.00 0.03 0.00 67 1009.1
20260510081058 6 319 8.0 17.7 0.00 0.03 0.00 67 1009.1
20260510080554 6 314 9.7 19.3 0.00 0.03 0.00 66 1009.0
20260510080058 6 350 6.4 19.3 0.00 0.03 0.00 66 1009.0
20260510075556 6 287 6.4 17.7 0.00 0.03 0.00 67 1009.0
20260510075056 6 304 8.0 19.3 0.00 0.03 0.00 66 1008.9
20260510074559 6 283 6.4 19.3 0.00 0.03 0.00 66 1008.9
20260510074057 6 355 8.0 33.8 0.00 0.03 0.00 65 1008.8
20260510073554 6 300 6.4 33.8 0.00 0.03 0.00 65 1008.8
20260510073055 7 313 12.9 33.8 0.00 0.03 0.00 64 1008.9
20260510072556 7 290 9.7 22.5 0.00 0.03 0.00 64 1008.6
20260510072055 7 287 8.0 19.3 0.00 0.03 0.00 63 1008.7
20260510071557 7 328 9.7 19.3 0.00 0.03 0.00 62 1008.7
20260510071055 7 305 9.7 22.5 0.00 0.03 0.00 62 1008.7
20260510070556 7 330 6.4 22.5 0.00 0.03 0.00 62 1008.5
20260510065555 8 292 11.3 25.7 0.00 0.03 0.00 60 1008.4
20260510065055 8 291 8.0 20.9 0.00 0.03 0.00 61 1008.4
20260510064556 8 314 8.0 20.9 0.00 0.03 0.00 61 1008.4
20260510064056 8 288 6.4 20.9 0.00 0.03 0.00 59 1008.3
20260510063557 8 322 8.0 20.9 0.00 0.03 0.00 59 1008.3
20260510063104 8 313 11.3 20.9 0.00 0.03 0.00 60 1008.2
20260510062556 8 254 6.4 20.9 0.00 0.03 0.00 62 1008.2
20260510062057 8 266 8.0 20.9 0.00 0.03 0.00 63 1008.1
20260510061555 8 329 6.4 20.9 0.00 0.03 0.00 62 1008.0
20260510061053 8 254 8.0 24.1 0.00 0.03 0.00 62 1008.1
20260510060555 8 300 8.0 24.1 0.00 0.03 0.00 62 1008.1
20260510060101 9 304 6.4 19.3 0.00 0.03 0.00 63 1007.9
20260510055556 9 299 6.4 16.1 0.00 0.03 0.00 63 1007.8
20260510055053 9 325 4.8 14.5 0.00 0.03 0.00 63 1007.8
20260510054559 9 327 6.4 14.5 0.00 0.03 0.00 64 1007.8
20260510054055 9 311 6.4 12.9 0.00 0.03 0.00 63 1007.6
20260510053556 9 315 6.4 12.9 0.00 0.03 0.00 64 1007.5
20260510053102 9 285 4.8 16.1 0.00 0.03 0.00 64 1007.6
20260510052557 9 285 6.4 16.1 0.00 0.03 0.00 64 1007.6
20260510052057 9 318 4.8 14.5 0.00 0.03 0.00 64 1007.6
20260510051645 10 288 6.4 12.9 0.00 0.03 0.00 64 1007.6
20260510051100 10 309 3.2 11.3 0.00 0.03 0.00 64 1007.5
20260510050559 10 321 3.2 14.5 0.00 0.03 0.00 63 1007.5
20260510050058 10 348 4.8 14.5 0.00 0.03 0.00 63 1007.7
20260510045555 10 301 3.2 9.7 0.00 0.03 0.00 65 1007.6
20260510045057 10 310 3.2 8.0 0.00 0.03 0.00 65 1007.5
20260510044557 10 306 1.6 9.7 0.00 0.03 0.00 64 1007.1
20260510044056 10 236 1.6 11.3 0.00 0.03 0.00 63 1007.1
20260510043553 10 329 4.8 16.1 0.00 0.03 0.00 63 1007.1
20260510043143 10 312 6.4 16.1 0.00 0.03 0.00 63 1007.2
20260510042556 10 288 4.8 12.9 0.00 0.03 0.00 63 1007.0
20260510042057 10 0 4.8 14.5 0.00 0.03 0.00 63 1006.9
20260510041558 10 325 3.2 14.5 0.00 0.03 0.00 64 1006.7
20260510041057 10 296 6.4 17.7 0.00 0.03 0.00 64 1006.8
20260510040555 10 303 6.4 17.7 0.00 0.03 0.00 65 1006.8
20260510040058 10 338 6.4 12.9 0.00 0.03 0.00 65 1006.7
20260510035557 10 304 4.8 12.9 0.00 0.03 0.03 68 1006.6
20260510035058 10 321 4.8 11.3 0.00 0.03 0.03 68 1006.6
20260510034557 10 336 1.6 9.7 0.00 0.03 0.03 68 1006.5
20260510034057 10 314 3.2 11.3 0.00 0.03 0.03 67 1006.4
20260510033556 10 355 3.2 11.3 0.00 0.03 0.03 66 1006.2
20260510033057 10 0 1.6 8.0 0.00 0.03 0.03 66 1006.2
20260510032554 10 302 3.2 6.4 0.00 0.03 0.03 65 1006.2
20260510032054 10 5 1.6 6.4 0.00 0.03 0.03 66 1006.0
20260510031627 10 0 1.6 6.4 0.00 0.03 0.03 64 1005.9
20260510031057 11 16 1.6 9.7 0.00 0.03 0.03 65 1005.8
20260510030557 11 0 3.2 16.1 0.00 0.03 0.03 65 1005.8
20260510030059 11 338 4.8 17.7 0.00 0.03 0.03 66 1006.1
20260510025554 11 323 3.2 20.9 0.00 0.03 0.03 71 1006.1
20260510025057 11 279 8.0 20.9 0.00 0.03 0.03 71 1005.9
20260510024559 11 11 1.6 14.5 0.00 0.03 0.03 73 1006.1
20260510024058 11 330 3.2 14.5 0.00 0.03 0.03 72 1005.9
20260510023557 11 316 6.4 19.3 0.00 0.03 0.03 73 1006.0
20260510023101 11 335 6.4 19.3 0.00 0.03 0.03 75 1006.0
20260510022558 11 335 11.3 19.3 0.00 0.03 0.03 78 1005.9
20260510022057 11 333 8.0 16.1 0.00 0.03 0.03 85 1005.7
20260510021558 11 311 6.4 14.5 0.00 0.03 0.03 88 1005.6
20260510021057 11 320 4.8 12.9 0.00 0.03 0.03 88 1005.4
20260510020558 11 284 3.2 12.9 0.00 0.03 0.03 89 1005.3
20260510020100 11 273 3.2 12.9 0.00 0.03 0.03 89 1005.1
20260510015554 11 304 3.2 12.9 0.00 0.03 0.03 90 1005.1
20260510015057 11 261 4.8 12.9 0.00 0.03 0.03 90 1004.8
20260510014556 11 268 3.2 12.9 0.00 0.03 0.03 90 1004.8
20260510014057 10 252 3.2 8.0 0.00 0.03 0.03 91 1004.5
20260510013559 10 243 3.2 6.4 0.00 0.03 0.03 90 1004.4
20260510013056 10 262 3.2 6.4 0.00 0.03 0.03 90 1004.2
20260510012600 10 221 3.2 6.4 0.00 0.03 0.03 89 1003.9
20260510012057 10 235 0.0 4.8 0.00 0.03 0.03 88 1003.8
20260510011622 11 0 0.0 4.8 0.00 0.03 0.03 88 1003.8
20260510011058 11 251 0.0 6.4 0.00 0.03 0.03 88 1003.7
20260510010556 11 0 0.0 6.4 0.00 0.03 0.03 87 1003.6
20260510010107 11 231 3.2 6.4 0.00 0.03 0.03 87 1003.5
20260510005559 11 228 1.6 6.4 0.00 0.03 0.03 87 1003.4
20260510005057 11 227 0.0 4.8 0.00 0.03 0.03 86 1003.3
20260510004559 11 0 0.0 6.4 0.00 0.03 0.03 86 1003.4
20260510004057 11 0 1.6 9.7 0.00 0.03 0.03 86 1003.3
20260510003555 11 227 3.2 12.9 0.00 0.03 0.03 86 1003.2
20260510003103 12 217 3.2 12.9 0.00 0.03 0.03 86 1003.2
20260510002554 12 221 6.4 12.9 0.00 0.03 0.03 86 1003.0
20260510002054 12 202 4.8 17.7 0.00 0.03 0.03 86 1003.0
20260510001559 12 212 8.0 17.7 0.00 0.03 0.03 86 1003.2
20260510001054 12 230 4.8 17.7 0.00 0.03 0.03 85 1003.0
20260510000556 12 274 3.2 12.9 0.00 0.03 0.03 85 1003.1
20260510000056 12 273 3.2 12.9 0.00 0.03 0.03 84 1002.9
20260509235554 12 270 4.8 19.3 0.00 0.03 0.03 84 1002.7
20260509235056 12 241 4.8 19.3 0.00 0.03 0.03 84 1002.7
20260509234608 12 286 9.7 19.3 0.00 0.00 0.00 82 1002.6
20260509234054 12 248 6.4 17.7 0.00 0.00 0.00 83 1002.5
20260509233556 12 234 4.8 14.5 0.00 0.00 0.00 82 1002.5
20260509233102 12 245 4.8 14.5 0.00 0.00 0.00 82 1002.4
20260509232558 12 232 6.4 14.5 0.00 0.00 0.00 82 1002.2
20260509232055 12 274 3.2 14.5 0.00 0.00 0.00 82 1001.9
20260509231605 12 212 6.4 22.5 0.00 0.00 0.00 81 1001.9
20260509231054 13 203 9.7 22.5 0.00 0.00 0.00 80 1001.7
20260509230554 13 207 9.7 22.5 0.00 0.00 0.00 80 1001.7
20260509230057 13 210 9.7 22.5 0.00 0.00 0.00 80 1001.7
20260509225554 13 232 9.7 25.7 0.00 0.00 0.00 80 1001.8
20260509225058 13 224 4.8 25.7 0.00 0.00 0.00 81 1001.8
20260509224609 13 226 11.3 25.7 0.00 0.00 0.00 80 1001.9
20260509224057 12 206 9.7 24.1 0.00 0.00 0.00 82 1001.8
20260509223554 12 271 8.0 19.3 0.00 0.00 0.00 84 1001.9
20260509223101 12 262 4.8 17.7 0.00 0.00 0.00 86 1001.9
20260509222557 12 222 3.2 22.5 0.00 0.00 0.00 85 1001.8
20260509222057 12 232 9.7 24.1 0.00 0.00 0.00 84 1001.8
20260509221559 12 201 9.7 24.1 0.00 0.00 0.00 84 1001.7
20260509221057 12 243 8.0 25.7 0.00 0.00 0.00 84 1001.7
20260509220556 12 184 12.9 35.4 0.00 0.00 0.00 84 1001.7
20260509215600 12 221 14.5 38.6 0.00 0.00 0.00 81 1001.7
20260509215100 13 202 12.9 30.6 0.00 0.00 0.00 82 1001.7
20260509214557 13 228 3.2 22.5 0.00 0.00 0.00 83 1002.2
20260509214054 13 267 8.0 22.5 0.00 0.00 0.00 82 1001.9
20260509213557 14 232 4.8 17.7 0.00 0.00 0.00 81 1002.0
20260509213116 14 192 3.2 19.3 0.00 0.00 0.00 79 1001.8
20260509212554 14 186 8.0 24.1 0.00 0.00 0.00 76 1001.9
20260509212057 14 231 6.4 24.1 0.00 0.00 0.00 75 1002.0
20260509211614 15 208 4.8 19.3 0.00 0.00 0.00 74 1002.1
20260509211054 15 182 8.0 19.3 0.00 0.00 0.00 74 1002.1
20260509210555 15 221 6.4 17.7 0.00 0.00 0.00 73 1002.1
20260509210100 15 242 8.0 22.5 0.00 0.00 0.00 73 1001.9
20260509205558 15 258 6.4 24.1 0.00 0.00 0.00 72 1001.7
20260509205057 15 207 8.0 25.7 0.00 0.00 0.00 72 1001.5
20260509204603 15 182 8.0 30.6 0.00 0.00 0.00 72 1001.5
20260509204057 15 195 9.7 30.6 0.00 0.00 0.00 72 1001.3
20260509203557 15 236 9.7 27.4 0.00 0.00 0.00 72 1001.3
20260509203101 15 241 8.0 29.0 0.00 0.00 0.00 72 1001.6
20260509202558 15 188 8.0 29.0 0.00 0.00 0.00 71 1001.8
20260509202057 15 190 6.4 25.7 0.00 0.00 0.00 71 1001.8
20260509201557 15 186 8.0 25.7 0.00 0.00 0.00 71 1001.8
20260509201056 15 209 6.4 20.9 0.00 0.00 0.00 71 1001.8
20260509200557 15 227 6.4 25.7 0.00 0.00 0.00 72 1001.8
20260509195555 15 151 4.8 24.1 0.00 0.00 0.00 72 1002.4
20260509195059 15 115 8.0 24.1 0.00 0.00 0.00 71 1002.3
20260509194601 15 202 8.0 19.3 0.00 0.00 0.00 71 1002.4
20260509194055 15 184 6.4 19.3 0.00 0.00 0.00 72 1002.4
20260509193557 15 169 6.4 19.3 0.00 0.00 0.00 71 1002.5
20260509193057 15 214 6.4 17.7 0.00 0.00 0.00 70 1002.7
20260509192557 15 208 4.8 22.5 0.00 0.00 0.00 69 1002.8
20260509192057 15 150 6.4 22.5 0.00 0.00 0.00 70 1002.6
20260509191559 15 206 8.0 22.5 0.00 0.00 0.00 70 1002.7
20260509191055 15 202 8.0 29.0 0.00 0.00 0.00 71 1002.7
20260509190558 15 188 6.4 29.0 0.00 0.00 0.00 69 1002.7
20260509190100 15 189 8.0 25.7 0.00 0.00 0.00 69 1002.8
20260509185554 16 221 11.3 25.7 0.00 0.00 0.00 68 1002.7
20260509185057 16 196 8.0 24.1 0.00 0.00 0.00 69 1002.8
20260509184558 16 179 8.0 27.4 0.00 0.00 0.00 70 1002.9
20260509184057 16 148 8.0 29.0 0.00 0.00 0.00 69 1002.9
20260509183557 16 195 6.4 29.0 0.00 0.00 0.00 70 1002.8
20260509183057 16 200 11.3 29.0 0.00 0.00 0.00 70 1002.9
20260509182556 16 205 9.7 22.5 0.00 0.00 0.00 69 1002.8
20260509182057 16 213 9.7 22.5 0.00 0.00 0.00 69 1002.9
20260509181611 16 145 8.0 30.6 0.00 0.00 0.00 68 1002.8
20260509181057 16 180 9.7 30.6 0.00 0.00 0.00 66 1002.9
20260509180558 17 157 9.7 29.0 0.00 0.00 0.00 67 1002.9
20260509180100 17 182 8.0 29.0 0.00 0.00 0.00 67 1002.8
20260509175557 17 215 8.0 33.8 0.00 0.00 0.00 67 1003.0
20260509175057 16 209 8.0 33.8 0.00 0.00 0.00 68 1003.1
20260509174556 16 227 11.3 33.8 0.00 0.00 0.00 68 1003.1
20260509174057 16 182 11.3 30.6 0.00 0.00 0.00 68 1003.3
20260509173556 16 224 11.3 30.6 0.00 0.00 0.00 67 1003.2
20260509173107 16 203 6.4 20.9 0.00 0.00 0.00 68 1003.4
20260509172557 16 177 6.4 24.1 0.00 0.00 0.00 68 1003.4
20260509172100 16 178 8.0 24.1 0.00 0.00 0.00 69 1003.6
20260509171607 16 178 8.0 22.5 0.00 0.00 0.00 69 1003.8
20260509171057 16 246 8.0 19.3 0.00 0.00 0.00 71 1003.9
20260509170556 16 200 8.0 24.1 0.00 0.00 0.00 70 1004.0
20260509170100 16 211 12.9 24.1 0.00 0.00 0.00 72 1004.0
20260509165556 15 173 8.0 20.9 0.00 0.00 0.00 72 1004.1
20260509165056 15 148 6.4 22.5 0.00 0.00 0.00 72 1004.0
20260509164554 15 173 4.8 22.5 0.00 0.00 0.00 73 1004.1
20260509164056 15 181 9.7 22.5 0.00 0.00 0.00 73 1004.0
20260509163600 15 218 8.0 19.3 0.00 0.00 0.00 73 1004.0
20260509163101 15 155 8.0 25.7 0.00 0.00 0.00 73 1004.2
20260509162556 15 184 8.0 25.7 0.00 0.00 0.00 75 1004.1
20260509162056 15 198 6.4 25.7 0.00 0.00 0.00 75 1004.1
20260509161557 14 211 8.0 25.7 0.00 0.00 0.00 78 1004.3
20260509161056 14 243 8.0 19.3 0.00 0.00 0.00 79 1004.4
20260509160557 13 121 4.8 12.9 0.00 0.00 0.00 81 1004.4
20260509160100 13 239 6.4 14.5 0.00 0.00 0.00 81 1004.5
20260509155556 13 223 6.4 17.7 0.00 0.00 0.00 80 1004.6
20260509155056 13 209 4.8 20.9 0.00 0.00 0.00 80 1004.7
20260509154559 13 187 8.0 20.9 0.00 0.00 0.00 81 1004.7
20260509154057 13 216 8.0 20.9 0.00 0.00 0.00 81 1004.8
20260509153556 13 238 3.2 11.3 0.00 0.00 0.00 81 1005.0
20260509153056 12 219 6.4 14.5 0.00 0.00 0.00 83 1005.0
20260509152557 12 225 4.8 14.5 0.00 0.00 0.00 83 1005.0
20260509152057 12 176 3.2 16.1 0.00 0.00 0.00 84 1005.0
20260509151557 12 232 4.8 16.1 0.00 0.00 0.00 84 1005.2
20260509151057 11 211 3.2 11.3 0.00 0.00 0.00 85 1005.2
20260509150557 11 178 3.2 11.3 0.00 0.00 0.00 85 1005.3
20260509150058 11 188 1.6 11.3 0.00 0.00 0.00 85 1005.2
20260509145558 11 204 1.6 12.9 0.00 0.00 0.00 85 1005.1
20260509145058 11 215 1.6 14.5 0.00 0.00 0.00 84 1005.2
20260509144554 11 192 3.2 14.5 0.00 0.00 0.00 84 1005.2
20260509144059 11 209 4.8 17.7 0.00 0.00 0.00 83 1005.4
20260509143557 11 239 4.8 17.7 0.00 0.00 0.00 82 1005.4
20260509143106 12 159 6.4 17.7 0.00 0.00 0.00 82 1005.5
20260509142557 12 177 3.2 14.5 0.00 0.00 0.00 83 1005.4
20260509142057 12 235 4.8 14.5 0.00 0.00 0.00 83 1005.5
20260509141600 12 234 4.8 11.3 0.00 0.00 0.00 83 1005.5
20260509141058 11 210 3.2 11.3 0.00 0.00 0.00 82 1005.5
20260509140600 11 194 3.2 11.3 0.00 0.00 0.00 82 1005.5
20260509140114 11 163 1.6 9.7 0.00 0.00 0.00 82 1005.5
20260509135557 11 161 3.2 11.3 0.00 0.00 0.00 81 1005.5
20260509135057 11 202 3.2 12.9 0.00 0.00 0.00 80 1005.7
20260509134600 11 217 3.2 14.5 0.00 0.00 0.00 80 1005.7
20260509134057 11 161 4.8 14.5 0.00 0.00 0.00 76 1005.6
20260509133557 11 165 3.2 11.3 0.00 0.00 0.00 76 1005.6
20260509133104 11 210 4.8 16.1 0.00 0.00 0.00 76 1005.8
20260509132557 11 231 1.6 16.1 0.00 0.00 0.00 76 1005.8
20260509132057 11 180 4.8 14.5 0.00 0.00 0.00 76 1005.9
20260509131558 11 169 1.6 12.9 0.00 0.00 0.00 77 1005.9
20260509131100 11 187 3.2 12.9 0.00 0.00 0.00 76 1005.9
20260509130557 10 167 4.8 12.9 0.00 0.00 0.00 75 1005.9
20260509125557 10 157 3.2 11.3 0.00 0.00 0.00 73 1006.0
20260509125058 10 112 4.8 11.3 0.00 0.00 0.00 73 1006.0
20260509124606 9 101 4.8 11.3 0.00 0.00 0.00 74 1006.0
20260509124057 9 107 3.2 8.0 0.00 0.00 0.00 74 1006.1
20260509123600 8 127 3.2 9.7 0.00 0.00 0.00 74 1006.1
20260509123101 8 131 3.2 9.7 0.00 0.00 0.00 74 1006.1
20260509122557 8 131 1.6 11.3 0.00 0.00 0.00 74 1006.1
20260509122057 7 145 3.2 12.9 0.00 0.00 0.00 75 1006.1
20260509121556 7 126 4.8 12.9 0.00 0.00 0.00 76 1006.1
20260509121058 7 119 3.2 12.9 0.00 0.00 0.00 75 1006.0
20260509120557 7 115 4.8 14.5 0.00 0.00 0.00 75 1006.0
20260509120058 6 140 3.2 14.5 0.00 0.00 0.00 75 1006.0
20260509115556 6 0 4.8 11.3 0.00 0.00 0.00 76 1005.8
20260509115056 6 0 1.6 6.4 0.00 0.00 0.00 77 1005.9
20260509114600 6 139 1.6 6.4 0.00 0.00 0.00 77 1006.0
20260509114057 6 0 0.0 8.0 0.00 0.00 0.00 78 1006.2
20260509113556 6 160 1.6 11.3 0.00 0.00 0.00 79 1006.1
20260509113059 5 119 1.6 11.3 0.00 0.00 0.00 81 1006.1
20260509112556 5 165 1.6 4.8 0.00 0.00 0.00 81 1006.0
20260509112057 5 138 0.0 6.4 0.00 0.00 0.00 82 1006.1
20260509111558 4 0 1.6 6.4 0.00 0.00 0.00 84 1006.2
20260509111057 4 121 0.0 3.2 0.00 0.00 0.00 85 1006.2
20260509110602 3 118 0.0 3.2 0.00 0.00 0.00 86 1006.2
20260509105557 3 0 0.0 0.0 0.00 0.00 0.00 86 1006.2
20260509105057 3 0 0.0 0.0 0.00 0.00 0.00 87 1006.3
20260509104602 3 0 0.0 1.6 0.00 0.00 0.00 86 1006.4
20260509104057 3 0 0.0 1.6 0.00 0.00 0.00 86 1006.4
20260509103555 3 0 0.0 1.6 0.00 0.00 0.00 86 1006.5
20260509103056 3 0 0.0 1.6 0.00 0.00 0.00 87 1006.5
20260509102557 2 0 0.0 0.0 0.00 0.00 0.00 87 1006.4
20260509102056 2 0 0.0 1.6 0.00 0.00 0.00 86 1006.4
20260509101557 2 0 0.0 1.6 0.00 0.00 0.00 86 1006.4
20260509101057 2 0 0.0 1.6 0.00 0.00 0.00 86 1006.5
20260509100557 2 0 0.0 1.6 0.00 0.00 0.00 86 1006.6
20260509100109 2 0 0.0 1.6 0.00 0.00 0.00 86 1006.5
20260509095558 2 0 0.0 0.0 0.00 0.00 0.00 85 1006.4